TOZEUR current weather conditions

sailwx.info

Wind from 150 at 5 knots

Air temperature 37.0° C
Dewpoint 6.0° C

Last reported at 2015-Jul-27 22:00 UTC.
Time now 2015-Jul-28 01:31 UTC

Location: N 33°55' E 008°06'.
View on Google Maps.

See reports from other nearby stations

  
Tides and Currents Weather Stations Pressure Air Temp Water Temp Dewpoint Dewpoint Depression Visibility Wind Speed Wind Dir Waves Ship Positions
date/time (UTC)wind fromknots sea level pressurealtimeterstation pressurevisibilityair tempwater tempwave heightnotes
2015-Jul-27 22:00 150 5 37.0
2015-Jul-27 21:00 140 4 37.0
2015-Jul-27 20:00 130 3 37.0
2015-Jul-27 19:00 110 1 40.0
2015-Jul-27 18:00 43.0
2015-Jul-27 17:00 310 4 43.0
2015-Jul-27 16:00 260 10 43.0
2015-Jul-27 15:00 270 12 43.0
2015-Jul-27 14:00 240 8 43.0
2015-Jul-27 13:00 200 7 41.0
2015-Jul-27 12:00 180 5 40.0
2015-Jul-27 10:00 110 6 37.0
2015-Jul-27 09:00 100 10 34.0
2015-Jul-27 08:00 090 11 32.0
2015-Jul-27 07:00 080 11 31.0
2015-Jul-27 06:00 080 10 29.0
2015-Jul-27 05:00 090 8 29.0
2015-Jul-27 04:00 090 9 30.0
2015-Jul-27 03:00 100 12 31.0
2015-Jul-27 02:00 090 9 32.0
2015-Jul-27 00:00 030 9 34.0
2015-Jul-26 23:00 170 7 35.0
2015-Jul-26 22:00 140 4 35.0
2015-Jul-26 21:00 140 3 35.0
2015-Jul-26 20:00 150 2 36.0
2015-Jul-26 19:00 220 3 38.0
2015-Jul-26 18:00 260 7 41.0
2015-Jul-26 17:00 230 8 41.0
2015-Jul-26 16:00 230 7 41.0
2015-Jul-26 15:00 230 8 41.0
2015-Jul-26 14:00 200 6 40.0
2015-Jul-26 13:00 39.0
2015-Jul-26 12:00 130 7 39.0
2015-Jul-26 11:00 140 8 37.0
2015-Jul-26 10:00 120 10 35.0
2015-Jul-26 09:00 100 9 34.0
2015-Jul-26 08:00 100 10 32.0
2015-Jul-26 07:00 090 10 31.0
2015-Jul-26 06:00 090 11 29.0